Temp
17 17 17 17 18 18 18 18 18 18 18 18 18 18 19 19 19 19 19 19 18 18 17 17 17 17 17 17 17 17 17 17 17 18 18 17 17 17 17 17 17 17 17 17 17 17 17 16 16 17 16 16 16 16 16 16 16 16 16 16 17 17 16 16 16 17 17 17 17 17 16 15 15 15 15 15 16 15 15 15 15 15 15 14 14
16 16 17 17 17 18 18 18 18 18 18 18 18 18 19 19 19 19 19 19 18 18 17 17 18 18 17 17 17 17 17 17 17 18 17 17 17 17 17 17 17 17 17 17 17 17 17 16 16 17 17 16 16 17 16 16 16 17 16 16 16 17 17 16 16 16 16 17 17 17 16 15 15 15 15 15 15 15 15 15 15 15 15 14 15
16 16 16 17 17 17 17 17 18 18 18 18 18 18 18 18 19 19 19 19 19 18 18 18 18 18 18 18 18 17 17 17 17 17 17 17 17 17 17 17 17 17 17 17 17 17 16 16 17 17 17 16 16 16 16 16 16 16 16 16 16 16 16 16 16 16 16 17 17 16 15 15 15 15 15 15 15 15 15 15 15 15 15 15 15
16 16 16 17 17 17 17 17 17 18 18 18 18 18 18 18 18 19 19 19 19 18 18 18 18 18 18 18 18 18 17 17 17 17 17 17 17 17 17 17 17 17 17 17 17 16 16 17 17 17 17 16 16 16 16 16 16 16 16 16 16 16 16 16 16 16 16 16 17 16 16 15 15 15 15 15 15 15 15 15 15 15 15 15 15
16 16 16 16 16 17 17 17 17 18 18 18 18 18 18 18 18 19 19 19 18 18 18 18 18 18 18 18 18 18 17 17 17 17 17 17 17 17 17 17 17 17 17 17 17 16 16 17 17 16 17 17 16 16 16 16 16 16 16 16 16 16 16 16 16 16 16 16 16 16 16 16 15 15 15 15 15 15 15 15 15 15 15 15 15
16 16 16 16 16 16 17 17 17 17 18 18 18 18 18 18 18 18 19 19 18 18 18 18 18 18 18 18 18 18 18 18 18 17 17 17 17 17 17 17 17 17 17 17 16 16 16 16 16 16 16 16 16 16 16 16 16 16 16 16 16 16 16 16 16 16 16 16 16 16 16 16 16 15 15 15 15 15 15 15 15 15 15 15 14
16 16 16 16 16 16 16 17 17 17 17 18 18 18 18 18 18 18 18 18 18 17 17 18 18 18 18 18 18 18 18 18 18 18 18 17 17 17 17 17 17 17 17 17 17 16 16 16 16 17 16 16 16 16 16 16 16 16 16 16 16 17 16 16 16 16 16 16 16 16 16 16 16 16 15 15 15 15 15 15 15 15 15 15 14
16 16 16 16 16 16 16 16 17 17 17 17 17 17 17 18 18 18 18 18 17 17 17 17 18 18 18 18 18 18 18 18 18 18 18 18 17 17 17 17 17 17 17 17 17 17 16 16 16 17 17 16 16 17 16 16 16 16 16 16 16 16 16 16 16 16 16 16 16 16 16 16 16 16 16 15 15 15 15 15 15 15 15 15 15
16 16 16 16 16 16 16 16 17 17 17 17 17 17 17 17 18 18 18 18 17 17 17 17 17 18 18 18 18 18 18 18 18 18 18 18 18 17 17 17 17 17 17 17 17 17 17 16 16 17 17 16 16 16 16 16 16 16 16 16 16 16 16 16 16 16 16 16 16 16 16 16 15 16 16 16 16 16 15 15 15 15 15 15 14
16 16 16 16 16 16 16 16 16 16 17 17 17 17 17 17 17 17 18 18 18 17 17 17 17 18 18 18 18 18 18 18 18 18 18 18 18 17 17 17 17 17 17 17 17 17 17 17 17 17 16 16 17 16 16 16 16 16 16 16 16 16 16 16 16 16 16 16 16 16 16 16 15 16 16 16 16 16 16 15 14 14 15 15 14
17 17 16 16 16 16 16 16 16 16 16 17 17 17 17 17 17 17 17 17 17 17 17 17 17 18 18 17 17 18 18 18 18 17 17 17 17 17 17 17 17 17 17 17 17 17 17 17 17 17 17 16 16 16 16 16 16 16 16 16 16 16 16 16 16 16 16 16 16 16 16 16 16 15 15 15 16 16 16 16 15 14 14 15 15
17 17 17 16 16 16 16 16 16 16 16 16 16 16 17 17 17 17 17 17 17 17 17 17 17 17 17 17 17 17 17 17 18 17 17 17 17 17 17 17 17 17 17 17 17 17 17 17 17 17 17 17 17 17 16 16 16 16 16 16 16 16 16 16 16 16 16 16 16 16 16 16 16 15 15 15 16 16 16 16 16 16 15 14 15
17 17 17 16 16 16 16 16 15 15 15 16 16 16 17 17 17 17 17 17 17 17 17 17 17 17 17 17 17 17 17 17 18 17 17 17 17 17 17 17 17 17 17 17 17 17 17 17 17 17 17 17 17 17 16 16 16 16 16 16 16 16 16 16 16 16 16 16 16 16 16 16 16 15 15 15 15 15 16 16 16 16 16 15 15
17 17 17 17 16 16 16 16 15 15 15 15 16 16 16 17 17 17 17 17 16 16 17 17 17 16 16 17 17 17 18 17 18 17 17 17 17 17 17 17 17 17 17 17 17 16 17 17 17 17 17 17 17 17 17 16 16 16 16 16 16 16 16 16 16 16 16 16 16 16 16 16 15 16 16 15 15 15 15 15 16 16 16 15 15
17 17 17 17 17 16 16 16 15 15 15 16 16 16 16 16 17 17 17 17 16 16 17 17 17 16 16 17 16 16 18 17 17 17 17 17 17 17 17 17 17 17 17 17 17 16 16 16 16 16 16 17 17 17 16 16 16 16 16 16 16 16 16 16 16 16 16 16 16 16 16 16 16 16 15 15 15 15 15 15 15 16 16 16 15
17 17 17 17 17 17 16 16 16 16 16 16 16 16 16 16 16 16 16 16 16 16 16 16 17 17 16 16 14 15 18 16 15 17 17 17 17 17 17 17 17 17 17 17 17 17 17 16 16 16 16 16 16 16 16 16 16 16 16 16 16 16 16 16 16 16 16 16 16 16 16 16 16 16 16 15 15 15 15 15 15 15 15 16 15
17 17 17 17 17 17 16 16 16 16 16 16 16 16 16 16 16 16 16 16 16 16 16 16 16 17 16 16 15 16 17 15 14 17 17 17 17 17 17 17 17 17 17 17 17 17 17 17 17 16 16 17 16 16 16 16 16 16 16 16 16 16 16 16 16 16 16 16 16 16 16 16 16 16 16 16 15 15 15 15 15 15 15 15 15
17 17 17 17 17 17 17 16 16 16 16 16 16 16 16 16 16 16 16 16 16 16 16 16 16 16 16 16 16 16 16 15 15 17 17 17 17 17 17 17 17 17 17 17 17 17 17 17 17 17 17 17 17 17 17 17 16 16 16 16 16 16 16 16 16 16 16 16 16 16 16 16 16 16 16 16 16 15 15 15 15 15 15 15 15
17 17 17 17 17 17 17 17 17 16 16 16 16 16 16 16 16 16 16 15 16 16 16 16 16 16 16 16 16 16 16 16 16 16 16 17 17 17 17 17 17 17 17 17 17 17 18 17 17 17 17 17 17 17 17 17 17 16 16 16 16 16 16 16 16 16 16 16 16 16 16 16 16 16 16 16 15 15 15 15 15 15 15 15 15
17 17 17 17 17 17 17 17 17 17 17 16 16 16 16 16 16 16 16 16 16 16 15 16 16 16 16 16 16 16 16 16 16 15 15 16 16 16 17 17 17 17 17 17 17 17 18 18 18 17 17 17 17 17 17 17 17 17 16 16 16 16 16 16 15 16 16 16 16 16 16 16 16 16 16 16 15 15 15 15 15 15 15 15 15
17 17 17 17 17 17 17 17 17 17 17 17 17 17 16 16 16 16 16 16 16 16 16 16 16 16 16 16 16 16 16 16 16 15 15 15 15 15 15 16 17 17 18 17 17 18 18 18 18 18 17 17 17 17 17 17 17 17 17 16 16 16 16 16 15 16 16 16 16 16 16 16 16 16 16 16 16 16 15 15 15 15 15 15 15
18 18 17 17 17 17 17 17 17 17 17 17 17 17 17 17 16 16 16 16 16 16 16 16 16 16 16 16 16 16 16 16 15 15 15 14 14 14 14 14 14 16 17 17 17 18 18 18 18 18 18 17 17 17 17 17 17 17 17 16 16 16 16 16 16 16 16 16 16 16 16 16 16 16 16 16 16 16 16 15 15 15 15 15 15
18 18 18 18 18 17 17 17 17 17 17 17 17 17 17 17 17 17 16 16 16 16 16 16 16 16 16 16 16 16 15 15 15 15 15 14 14 14 14 14 14 14 15 16 17 17 18 18 18 18 18 17 17 17 17 17 16 17 17 16 16 16 16 16 16 16 16 16 16 16 15 16 16 16 16 16 16 16 16 15 15 15 15 15 15
18 18 18 18 18 18 18 17 17 17 17 17 17 17 17 17 17 17 17 17 17 16 16 16 16 16 16 16 16 16 15 16 16 15 15 15 14 14 14 14 14 14 15 16 16 17 17 18 18 18 17 17 17 17 17 17 17 17 17 17 16 16 17 16 16 16 16 16 15 15 15 15 16 16 16 16 16 16 15 15 15 15 15 15 15
19 18 18 18 18 18 18 18 18 18 17 17 17 17 17 17 17 17 17 17 17 17 17 17 16 16 16 16 16 16 16 16 16 15 15 15 14 14 14 14 13 14 15 15 15 17 17 17 17 18 17 17 16 17 17 17 17 17 17 17 17 16 17 17 17 16 16 16 16 15 15 16 16 16 16 16 16 15 15 15 15 15 16 16 15
19 19 19 18 18 18 18 18 18 18 18 18 17 17 17 17 17 17 17 17 17 17 17 17 17 17 17 16 16 16 16 16 16 16 16 15 15 14 14 14 13 13 14 15 15 16 16 16 16 17 17 16 16 16 17 17 17 17 17 17 17 17 17 17 17 17 17 16 16 16 16 16 16 16 16 16 16 15 15 15 15 16 16 16 15
19 19 19 19 19 19 18 18 18 18 18 18 18 18 17 17 17 17 17 17 17 17 17 17 17 17 17 17 16 16 16 16 16 16 16 16 15 15 14 14 14 13 14 15 15 16 16 16 16 16 16 16 16 16 17 17 17 17 17 17 17 17 17 17 17 17 17 17 16 16 16 15 16 16 15 15 16 16 15 15 15 15 16 16 15
19 19 19 19 19 19 19 19 18 18 18 18 18 18 18 17 17 17 17 17 17 17 17 17 17 17 17 17 17 17 17 17 16 16 16 16 16 16 15 14 14 14 14 15 15 15 16 16 16 16 16 16 17 17 17 17 17 17 17 17 17 17 17 17 17 17 17 17 17 16 16 16 15 15 15 16 16 16 16 15 15 15 15 15 15
20 19 19 19 19 19 19 19 19 19 18 18 18 18 18 18 18 18 18 18 17 17 17 17 17 17 17 17 17 17 17 17 17 17 17 16 16 16 16 15 14 14 14 14 14 15 16 16 16 17 17 17 17 17 17 17 17 17 17 17 17 17 17 17 17 17 17 17 17 17 17 16 16 15 15 16 16 16 16 15 15 15 15 15 15
20 20 20 20 20 19 19 19 19 19 19 19 19 18 18 18 18 18 18 18 17 18 18 17 17 17 17 17 17 17 17 17 17 17 17 17 17 16 16 16 15 14 14 14 14 15 16 16 16 17 17 17 17 17 17 17 17 17 17 17 17 17 17 17 17 17 17 16 16 16 16 16 16 16 16 16 16 16 15 15 15 15 15 15 15
20 20 20 20 20 20 20 19 19 19 19 19 19 19 18 18 18 18 18 18 18 18 18 18 18 17 17 17 17 17 18 17 17 17 17 17 17 17 17 16 16 15 14 13 14 15 15 16 16 17 17 17 17 17 17 17 17 17 17 17 17 17 17 17 17 16 16 16 16 16 16 16 16 16 16 16 16 16 15 15 15 15 15 15 15
20 20 20 20 20 20 20 20 20 19 19 19 19 18 18 18 18 18 18 18 17 17 18 17 17 17 17 17 17 17 17 17 17 17 17 17 17 17 16 16 16 15 15 13 13 14 15 16 16 17 17 17 17 17 17 17 17 17 17 17 17 17 17 17 16 16 16 16 16 16 16 16 16 16 16 16 16 16 16 15 15 15 15 15 15
20 20 20 20 20 20 20 20 20 20 20 19 19 18 18 18 17 17 17 17 17 17 17 17 17 17 17 17 17 17 17 16 17 17 17 17 16 16 16 16 15 15 15 13 13 14 15 16 16 17 17 17 17 17 17 17 17 17 17 17 16 16 16 16 16 16 16 16 16 16 16 16 16 16 16 16 16 16 16 16 16 15 15 15 14
21 20 20 20 20 20 20 19 19 19 19 19 19 18 17 17 17 17 17 16 16 16 16 17 17 16 16 16 16 16 16 16 16 16 16 16 15 15 15 15 15 15 15 14 13 13 14 15 16 16 17 16 17 17 17 17 17 17 17 17 16 16 16 16 16 16 16 16 16 16 16 16 16 16 16 16 16 16 16 17 16 16 15 15 15
20 20 20 20 20 19 19 19 19 18 18 18 18 18 17 17 17 16 16 16 15 16 15 16 16 15 15 15 15 15 15 15 15 15 15 15 14 14 14 14 14 15 15 14 13 13 13 14 15 15 16 16 16 17 17 17 17 17 17 17 16 16 16 16 16 16 16 16 16 16 16 16 16 16 16 16 16 16 16 16 16 16 16 16 15
20 19 19 19 19 19 19 18 18 18 18 17 17 17 17 16 16 16 16 15 15 15 15 15 14 14 14 14 14 15 14 14 14 14 14 14 14 14 14 14 14 14 14 14 13 13 13 13 14 14 15 15 16 16 16 16 16 16 16 17 17 17 17 17 17 17 17 17 16 16 16 16 16 16 16 16 16 16 16 16 16 16 16 16 15
19 19 19 19 18 18 18 17 17 17 17 17 17 16 16 16 16 15 15 15 15 15 14 14 14 14 14 14 14 14 14 14 14 14 14 14 14 13 13 13 13 13 14 13 13 13 12 12 13 14 14 14 14 15 15 15 15 16 16 16 17 17 17 17 17 17 17 17 17 17 16 16 16 16 16 16 16 15 15 15 15 16 16 16 15
19 19 18 18 18 18 17 17 17 17 17 17 16 16 16 16 15 15 15 15 14 14 14 14 14 14 14 14 13 13 13 13 13 13 13 13 13 13 13 13 13 13 13 13 13 13 12 12 12 13 13 13 13 14 15 15 14 15 15 16 16 17 17 17 17 17 17 17 17 17 17 17 16 16 16 16 16 15 15 15 15 15 15 15 15
18 18 18 17 17 17 17 17 16 16 16 16 16 16 16 15 15 15 15 14 14 14 14 14 14 14 14 14 13 13 13 13 13 13 13 13 13 13 13 13 13 13 12 12 12 12 12 12 12 12 12 13 13 13 14 14 14 14 14 14 15 16 17 17 17 17 17 17 17 17 17 17 17 16 16 16 16 15 15 15 15 15 15 15 15
18 17 17 17 16 16 16 16 16 16 16 16 15 15 15 15 15 15 15 14 14 14 14 14 13 13 13 13 13 13 13 13 12 12 12 12 12 13 12 12 12 12 12 12 12 12 11 11 12 12 12 12 12 12 13 13 13 13 14 13 14 15 16 16 16 17 17 17 17 17 17 17 16 16 16 16 16 16 15 15 15 15 15 15 15
17 17 16 16 16 16 15 15 15 15 15 15 15 15 15 15 15 15 14 14 14 14 14 13 13 13 13 13 12 12 12 12 12 12 12 12 12 12 12 12 12 12 12 12 12 12 12 11 11 11 12 12 12 12 12 12 12 13 13 13 13 14 14 15 15 16 16 16 17 17 17 17 17 16 16 16 16 16 16 15 15 15 15 15 15
17 16 16 16 15 15 15 15 15 15 15 15 15 15 15 14 14 14 14 14 14 14 13 13 13 13 13 12 12 12 12 12 12 13 13 13 13 13 13 13 13 12 11 11 12 12 12 11 11 12 12 12 12 12 12 12 12 12 12 12 12 13 13 13 14 15 16 16 16 16 17 17 17 16 16 16 16 16 16 15 15 15 15 15 15
16 16 15 15 15 15 15 15 14 14 14 14 14 14 14 14 14 14 14 14 14 13 13 13 13 13 13 12 12 12 12 12 13 13 13 13 14 14 14 14 13 13 11 11 11 11 11 11 11 11 11 12 12 11 11 12 12 12 12 12 11 12 12 12 13 14 15 16 15 16 17 17 17 16 16 16 16 16 16 16 16 15 15 15 15
16 15 15 15 15 14 14 14 14 14 14 14 14 14 14 14 14 14 13 13 13 13 13 13 12 12 12 12 12 12 12 12 12 13 13 14 14 14 14 14 13 13 12 11 10 10 10 10 10 11 11 11 11 11 11 11 11 11 11 11 11 11 11 11 11 13 14 15 15 15 15 16 16 16 16 16 16 16 16 16 16 15 15 15 15
15 15 14 14 14 14 14 14 14 13 13 13 13 13 13 13 13 13 13 13 13 13 12 12 12 12 12 12 11 11 11 12 12 13 13 13 13 13 13 13 13 13 13 12 11 10 10 9 9 10 10 10 10 11 11 11 11 11 11 11 11 11 11 11 11 12 13 14 14 14 14 15 15 15 16 16 17 16 17 17 16 16 16 15 15
15 14 14 14 14 14 14 14 13 13 13 13 13 13 13 13 13 13 13 13 13 13 12 12 12 12 11 11 11 10 11 11 11 12 13 13 13 13 13 13 14 13 13 12 12 11 10 10 9 9 10 10 10 10 10 10 10 10 11 11 11 11 11 11 11 12 13 13 13 13 13 14 15 15 15 16 16 16 17 17 17 16 16 16 15
14 14 14 14 14 14 14 14 13 13 13 13 13 13 13 13 13 13 13 13 13 13 12 12 12 12 11 10 10 10 10 11 11 11 12 12 12 13 13 13 13 13 12 12 11 11 11 10 10 10 10 10 10 10 10 10 10 10 10 10 11 11 11 11 11 11 12 12 12 12 12 13 14 14 15 16 16 16 16 17 17 16 16 16 16
14 14 14 14 14 14 14 14 13 13 13 13 13 13 13 13 13 13 13 13 13 13 13 12 11 11 11 10 10 10 10 11 11 11 12 12 12 12 12 13 13 12 12 11 11 11 11 10 10 10 10 10 10 10 10 10 10 10 10 10 10 10 10 10 11 11 11 12 12 12 11 13 14 13 14 16 16 15 16 16 17 17 16 16 16
14 14 14 14 14 14 14 13 13 13 12 12 12 12 13 13 13 13 13 13 13 13 12 12 11 11 11 10 10 11 10 10 11 11 11 11 11 11 12 12 12 12 12 12 12 11 11 11 11 10 10 10 11 10 10 10 10 9 9 9 10 10 10 10 10 11 11 11 12 11 11 12 13 13 14 15 15 15 16 16 16 16 16 16 16
14 14 14 14 14 14 13 13 13 13 12 12 12 12 12 12 12 13 13 13 13 13 12 12 12 11 11 10 10 10 10 10 10 11 11 11 11 10 10 11 11 11 11 11 12 12 12 12 11 11 11 11 11 11 10 10 10 9 9 9 9 10 10 10 10 10 10 11 11 11 11 11 12 12 13 13 14 14 15 16 16 16 16 16 16
15 14 14 13 14 14 13 13 12 12 12 12 12 12 12 12 12 12 12 13 13 12 12 12 12 11 11 11 10 10 10 10 10 10 10 10 10 10 10 10 10 9 9 10 10 10 11 11 11 11 11 11 11 11 11 10 10 9 9 9 9 9 9 10 10 10 10 11 11 11 11 11 11 12 12 12 12 13 14 15 16 16 16 16 16
Height
791 790 789 788 787 786 785 785 784 784 783 783 782 782 781 780 780 779 778 777 777 776 776 776 775 775 775 775 774 774 775 774 774 775 775 776 777 777 777 777 778 778 778 778 779 779 780 781 783 783 784 785 786 787 789 791 793 794 795 797 798 799 800 801 803 804 805 806 807 808 809 809 810 811 812 813 814 816 817 818 820 821 822 823 824
792 791 790 789 788 787 786 786 785 785 784 784 783 783 782 781 781 780 779 778 777 777 777 777 776 776 776 776 775 775 775 775 775 775 775 776 777 777 777 777 777 778 778 779 779 780 780 782 783 782 782 784 785 787 788 790 792 794 795 796 798 799 800 801 802 803 804 805 807 808 809 810 810 811 812 813 814 815 817 818 819 821 822 823 824
793 792 791 790 789 788 787 786 786 785 785 785 784 784 783 782 781 781 780 779 778 778 777 777 776 777 777 777 776 776 776 776 776 776 776 777 777 778 778 778 778 779 779 779 780 780 781 782 782 782 783 784 785 786 788 790 792 793 794 795 797 799 800 801 802 803 804 805 806 807 809 809 810 811 812 813 814 815 816 817 819 820 821 822 824
793 792 791 790 789 789 788 787 787 786 786 786 785 785 784 783 782 782 781 781 780 779 778 778 777 777 777 777 777 777 777 777 777 777 777 777 778 778 778 779 779 779 779 780 780 781 782 782 781 782 783 783 785 786 788 791 792 793 794 795 796 798 799 800 801 803 804 805 806 807 808 809 810 811 812 813 814 815 816 817 818 820 821 822 823
794 793 792 791 790 790 789 788 788 787 787 786 786 785 784 783 783 783 782 782 781 780 779 779 778 778 778 778 778 777 777 777 777 778 778 778 778 779 779 779 780 779 780 780 780 781 782 781 781 783 783 783 785 786 788 789 790 791 793 794 796 797 799 800 801 802 803 804 805 806 808 809 810 811 812 812 813 815 815 816 818 819 821 822 823
795 795 794 793 792 791 790 789 789 788 788 787 786 786 785 784 784 783 783 783 782 781 781 780 779 779 779 779 778 778 778 778 778 778 778 779 779 779 779 780 780 780 780 780 781 782 782 782 782 782 782 783 785 786 787 788 789 791 792 794 795 796 798 799 800 802 803 804 805 806 807 808 809 811 812 812 813 814 815 816 817 818 820 821 823
797 796 795 794 793 792 791 791 790 789 788 788 787 787 786 785 785 784 784 784 783 783 782 781 781 781 780 780 779 779 779 778 779 779 779 779 780 780 780 780 780 780 780 780 781 781 782 782 782 782 782 783 784 785 786 787 789 790 792 793 793 794 795 797 799 801 802 803 804 805 807 808 809 810 811 812 812 814 815 816 817 818 819 821 822
798 797 796 795 794 793 792 792 791 790 789 789 788 787 787 786 786 785 785 785 784 783 783 783 782 782 782 781 781 780 780 779 779 780 780 780 780 780 780 781 780 780 780 780 781 781 782 782 783 782 782 783 783 784 785 786 787 788 790 790 791 792 794 797 798 800 801 802 803 805 806 807 808 809 810 811 812 813 814 816 817 818 819 820 821
798 798 797 796 795 794 794 793 792 791 790 789 789 788 788 788 787 786 786 785 785 784 784 784 783 783 783 783 782 782 781 781 781 781 781 781 781 781 781 781 781 781 781 781 781 781 782 782 783 783 782 783 783 784 785 785 786 787 789 789 790 792 794 796 797 798 800 801 802 803 805 806 807 808 809 810 811 812 814 815 816 818 819 820 821
799 799 798 797 796 795 795 794 793 792 791 790 790 790 789 789 788 787 787 786 786 785 785 785 785 784 784 784 784 784 783 783 782 782 782 782 782 782 782 782 782 782 782 782 782 782 782 782 783 783 783 783 783 784 785 785 786 787 788 788 789 791 792 794 796 797 798 800 800 802 804 805 806 807 809 810 811 812 813 814 816 817 818 819 820
800 799 799 798 797 796 796 795 794 793 792 791 791 790 790 790 789 789 788 787 786 786 786 786 786 786 785 785 785 785 785 785 784 784 784 784 784 783 783 783 783 783 783 783 783 783 783 783 783 783 783 783 783 784 784 785 785 786 787 787 789 790 790 792 794 796 797 798 799 801 802 804 805 807 808 809 810 811 812 813 815 816 818 819 820
801 800 799 799 798 797 797 796 795 794 793 792 792 791 791 791 790 790 789 788 787 787 787 787 787 787 786 786 786 786 786 786 786 785 785 785 785 785 785 784 784 784 783 783 783 783 783 783 783 783 783 783 783 784 784 784 785 785 785 786 788 788 789 791 793 794 796 797 798 799 801 802 804 805 806 808 809 810 811 812 814 815 816 818 819
802 801 800 800 799 799 798 797 796 795 794 794 793 793 793 792 792 791 790 789 788 788 788 788 788 788 787 787 787 787 787 787 787 787 787 786 786 786 786 786 785 785 785 784 784 784 784 784 784 784 784 784 784 784 784 784 784 785 785 786 787 787 787 789 791 792 794 795 796 798 799 801 802 803 805 806 807 809 810 811 812 814 815 816 818
803 802 801 801 800 800 799 798 797 796 796 795 795 794 794 794 793 793 792 791 790 789 789 788 788 788 788 788 788 788 788 788 788 787 787 787 787 787 787 786 786 786 785 785 785 784 784 784 784 784 784 784 784 784 784 784 784 784 784 785 786 786 786 787 788 789 791 793 794 796 797 798 800 801 803 804 806 807 808 810 811 812 814 815 816
803 803 802 802 801 801 800 800 799 798 797 797 796 796 795 795 795 794 793 792 792 791 790 789 789 789 789 789 790 790 789 788 788 788 788 788 787 787 787 787 787 786 786 786 785 785 785 785 785 785 785 785 785 785 784 784 784 784 784 785 785 786 786 786 786 787 788 790 792 794 795 796 798 800 802 803 804 805 807 808 809 811 812 813 815
804 803 803 803 802 802 801 801 800 800 799 799 798 797 797 796 796 795 794 794 793 792 791 790 789 789 789 790 792 792 792 791 790 789 789 788 788 788 788 787 787 787 786 786 786 785 785 785 785 785 785 785 785 785 785 784 784 783 784 784 784 785 785 785 785 785 786 788 790 791 793 794 795 798 800 800 802 804 805 807 808 809 811 812 813
804 804 804 803 803 803 803 802 802 801 800 800 799 799 798 798 797 796 796 795 794 794 793 792 791 790 790 791 792 793 794 793 791 790 789 789 789 788 788 788 787 787 787 786 786 786 786 786 786 786 785 785 785 785 785 784 784 783 783 783 784 784 784 784 784 784 785 786 788 789 791 792 793 795 797 798 800 802 804 805 806 808 809 810 812
805 805 804 804 804 804 803 803 803 802 802 801 801 800 800 799 798 798 797 797 796 795 795 794 794 793 792 792 793 794 794 793 792 792 790 789 790 790 789 788 788 788 787 787 787 786 786 786 786 786 786 785 785 785 785 784 784 783 783 783 783 783 783 783 783 783 784 785 786 787 788 790 791 793 794 795 797 800 801 803 804 806 807 808 810
805 805 805 805 805 804 804 804 803 803 803 802 802 801 801 800 800 799 798 798 797 797 797 796 796 795 795 794 794 794 793 793 793 794 793 791 790 789 789 789 789 788 788 787 787 787 786 786 786 786 786 786 785 786 785 785 784 784 783 783 782 782 782 782 782 783 783 784 785 785 786 788 789 790 792 793 795 797 799 801 802 804 805 806 808
805 805 805 805 805 805 805 804 804 804 803 803 802 802 802 801 801 800 799 799 798 798 798 797 797 797 796 796 795 795 795 794 794 794 795 793 791 790 789 789 789 789 788 788 787 787 786 786 786 786 786 786 785 785 785 785 785 784 783 783 782 782 781 781 781 781 781 782 782 782 783 785 787 788 789 791 793 795 797 798 800 802 803 805 806
806 805 805 805 805 805 805 804 804 804 803 803 803 802 802 802 801 801 800 800 799 799 799 798 798 798 797 797 796 796 795 795 795 794 794 794 793 792 791 789 788 788 787 787 787 786 786 786 785 785 785 785 785 785 785 785 785 784 784 783 782 782 781 781 781 780 780 780 780 780 781 782 784 785 786 788 790 792 794 796 798 800 801 803 804
806 805 805 805 805 805 805 804 804 804 804 803 803 802 802 802 801 801 800 800 800 800 799 799 799 799 798 798 797 797 796 796 795 795 795 795 795 794 792 791 790 788 787 786 786 785 785 785 785 785 785 785 785 785 785 785 785 784 784 783 783 782 781 781 780 780 779 779 779 779 779 780 781 783 784 786 787 789 791 793 795 797 798 800 802
806 805 805 805 805 804 804 804 804 803 803 803 803 802 802 802 801 801 801 800 800 800 800 799 799 799 799 798 798 798 797 797 796 796 796 795 795 794 793 792 791 788 786 785 785 784 784 784 783 784 784 785 785 785 785 785 784 784 784 784 783 782 782 781 780 780 779 778 778 778 779 780 780 781 783 784 785 786 788 790 792 794 795 797 799
806 805 805 805 804 804 804 803 803 803 803 802 802 802 801 801 801 801 800 800 800 800 799 799 799 799 799 798 798 798 798 798 797 796 796 796 795 795 793 792 790 788 786 785 784 783 783 782 782 783 783 784 784 784 784 784 784 784 784 783 783 782 781 781 780 779 779 778 778 778 778 778 778 779 780 781 782 783 785 787 790 792 792 794 796
806 805 805 804 804 804 803 803 803 802 802 802 802 801 801 801 800 800 800 800 800 799 799 799 799 799 798 798 798 797 797 797 797 797 796 796 795 795 793 792 791 789 786 785 784 783 782 782 781 781 782 783 783 784 784 784 784 783 783 783 783 782 781 781 780 779 779 778 778 778 777 777 777 777 777 778 779 781 783 785 787 788 788 790 793
805 805 805 804 804 804 803 803 803 802 802 802 801 801 801 800 800 800 799 799 799 799 799 798 798 798 798 798 797 797 797 796 796 796 796 795 795 795 794 793 792 790 787 786 785 784 783 782 781 781 782 782 783 783 783 783 783 783 783 783 782 782 781 781 780 779 778 778 777 777 777 776 776 776 776 776 777 779 780 782 783 784 785 787 789
805 805 805 804 804 803 803 803 802 802 802 801 801 801 800 800 800 799 799 799 799 798 798 798 798 798 797 797 797 796 796 796 795 795 795 795 794 794 794 793 793 791 789 787 785 784 784 782 782 782 782 782 782 783 782 782 782 782 782 782 782 781 781 780 780 779 778 777 777 776 776 776 775 775 775 775 774 775 775 777 779 780 781 783 786
805 805 805 804 804 803 803 802 802 802 801 801 801 800 800 799 799 799 798 798 798 797 797 797 797 797 796 796 796 795 795 795 794 794 794 793 793 793 793 793 794 793 791 789 786 785 784 783 783 782 782 782 782 782 782 781 781 781 781 781 781 780 780 779 779 778 778 777 777 776 775 775 775 774 774 773 773 772 772 773 775 777 779 781 783
805 805 805 804 804 803 803 802 801 801 801 800 800 799 799 798 798 797 797 797 797 796 796 796 795 795 795 795 794 794 793 794 793 793 793 792 792 791 791 791 792 793 792 790 788 785 784 783 783 782 782 782 781 781 781 780 780 780 779 779 779 779 779 778 778 777 777 777 776 775 775 774 774 774 773 772 772 771 771 771 772 774 776 778 780
805 805 804 804 804 803 802 802 801 801 800 800 799 799 798 797 796 796 795 795 795 794 794 794 793 794 793 793 793 792 792 792 791 791 791 791 790 790 790 790 790 790 790 790 788 785 783 783 782 782 781 780 780 780 779 779 778 778 778 778 778 777 777 777 777 776 776 776 775 775 774 774 773 773 773 772 771 771 771 771 771 772 773 775 776
804 804 804 803 803 803 802 801 801 800 800 799 798 798 797 796 795 794 794 794 793 792 792 792 791 791 791 791 791 790 790 790 790 790 789 789 789 789 788 788 788 787 788 788 788 784 781 781 780 780 780 779 779 778 778 777 777 776 776 776 776 776 776 776 776 775 775 775 774 774 774 773 773 772 772 771 771 771 770 770 770 771 771 772 773
804 803 803 802 801 801 800 800 799 798 797 797 796 796 795 794 793 793 792 792 791 790 790 790 790 789 789 788 788 787 788 788 788 788 787 787 787 787 786 786 786 785 785 786 786 782 779 779 778 778 778 778 777 777 776 776 775 775 774 774 774 774 774 774 774 774 773 773 773 773 773 772 772 772 771 771 770 770 769 769 769 769 769 770 770
803 802 801 801 800 800 799 798 797 796 795 795 794 793 793 792 791 791 790 790 789 788 788 787 787 787 787 786 785 785 786 786 786 785 785 785 785 785 784 784 783 783 783 783 783 779 777 777 776 776 776 776 775 775 774 774 774 773 773 772 772 772 772 773 773 772 772 772 771 771 771 771 771 771 771 770 770 769 769 768 768 768 768 768 768
801 801 800 800 799 798 798 797 796 795 794 793 793 792 791 790 790 789 789 788 787 787 786 785 785 785 785 785 784 784 784 784 784 783 783 783 783 783 783 782 782 781 782 781 781 779 776 774 774 774 773 773 773 772 772 772 772 771 771 771 770 770 770 770 770 770 770 770 770 770 770 769 769 770 770 770 769 769 768 768 767 767 767 767 767
800 800 799 799 798 798 797 796 796 795 794 793 792 791 790 790 789 788 788 787 786 786 785 784 784 784 784 783 783 783 783 782 782 782 782 782 782 782 781 780 780 779 779 779 779 778 775 773 772 772 771 771 770 770 770 770 769 769 769 768 768 768 768 768 768 768 768 768 768 768 768 768 767 768 768 768 768 768 767 767 766 766 766 765 765
800 799 799 799 798 797 797 796 796 795 795 794 793 792 791 790 789 788 787 786 786 785 784 784 783 783 783 782 782 782 782 781 781 781 781 781 781 780 779 778 778 777 776 776 776 775 774 772 770 769 769 769 768 768 768 767 767 767 766 766 766 765 765 765 765 765 765 765 765 765 765 766 766 765 766 766 766 767 766 766 766 765 765 764 764
799 799 799 799 798 798 797 797 797 796 795 795 794 793 792 791 790 789 788 787 786 785 784 783 783 782 782 782 781 781 781 780 780 780 779 779 779 778 777 776 776 775 774 773 773 773 772 771 768 767 767 767 766 765 765 765 765 764 764 763 763 763 762 762 762 762 762 762 762 762 763 763 763 763 764 764 764 765 765 764 764 764 764 763 763
799 800 799 799 799 798 798 798 797 797 796 795 794 794 793 792 791 790 789 788 787 786 785 784 783 782 782 781 781 781 780 780 779 779 778 778 777 777 776 775 774 773 772 771 771 771 770 769 767 765 765 764 764 762 762 762 762 761 761 760 760 760 759 759 759 759 759 759 759 759 760 760 761 761 761 761 762 762 762 763 763 762 762 762 762
800 800 800 800 800 799 799 799 798 798 797 796 796 795 794 793 792 790 789 788 788 787 786 785 784 783 782 781 781 781 780 780 779 779 778 777 776 776 775 774 773 772 771 770 770 769 768 767 766 764 763 762 761 760 759 760 760 759 758 757 756 756 756 756 756 756 756 756 756 756 756 757 757 758 758 759 759 759 760 760 760 760 761 761 760
801 801 801 801 800 800 800 800 799 799 798 797 797 797 796 795 793 792 791 789 788 787 787 786 785 784 783 782 781 781 781 780 780 779 778 777 776 775 774 773 772 771 770 769 768 767 766 765 764 763 762 761 760 759 758 758 757 756 756 755 754 753 754 754 753 753 753 753 753 753 753 753 754 754 755 756 756 757 757 757 758 758 758 759 759
801 801 801 802 801 801 801 801 800 799 799 799 799 798 797 796 795 794 792 791 790 789 788 787 786 785 784 783 782 782 782 781 780 779 779 778 776 775 774 773 772 770 769 768 767 766 765 764 763 762 761 759 758 758 757 755 755 754 754 753 752 751 751 751 751 751 751 750 750 749 749 750 750 751 751 752 752 753 754 754 755 755 756 756 757
802 802 802 802 802 802 802 802 801 800 800 800 800 800 799 798 797 795 794 792 791 790 789 788 787 786 785 784 784 783 782 781 780 779 778 778 776 775 774 773 771 770 768 767 766 765 764 763 762 761 759 757 756 756 755 753 753 752 751 751 750 749 749 749 747 747 747 747 747 746 746 746 747 747 748 748 749 750 750 751 752 752 753 754 754
802 802 803 803 803 803 803 802 802 801 802 802 802 801 800 799 798 796 795 794 792 791 790 789 788 787 786 785 784 783 782 781 780 779 778 777 776 775 773 772 771 770 768 767 766 764 763 762 761 760 758 756 755 754 753 752 751 750 749 749 748 748 748 747 746 744 744 744 744 743 743 743 743 743 744 744 745 746 747 747 748 750 751 751 752
803 803 804 803 803 804 803 803 803 803 803 803 803 802 801 800 799 798 796 795 794 793 792 790 789 788 786 786 785 784 783 781 780 778 777 776 775 773 772 771 770 769 767 766 765 764 763 762 760 759 757 756 754 753 752 750 749 748 748 747 747 746 746 745 744 743 742 742 742 741 741 740 741 740 740 741 742 743 743 744 745 747 748 748 749
803 803 804 804 804 804 804 804 804 804 804 804 804 804 803 802 800 799 798 797 795 794 793 791 790 789 787 786 785 784 783 781 780 778 777 775 774 773 771 770 769 767 766 765 764 763 762 761 760 758 757 756 754 752 751 751 749 748 746 745 745 744 743 742 741 740 740 740 741 740 738 737 738 738 737 737 738 739 740 741 742 743 744 745 746
803 804 804 804 804 805 804 805 805 805 805 805 805 805 804 803 802 800 799 798 797 796 794 792 791 789 788 787 786 784 783 781 780 778 777 775 773 772 770 769 768 767 765 764 763 762 761 760 759 757 755 755 754 752 751 750 749 747 745 744 743 742 741 739 738 737 737 738 738 738 735 734 734 735 734 734 735 736 737 738 739 740 741 741 742
803 804 804 804 805 805 805 805 805 806 806 806 806 805 805 804 803 801 800 799 798 796 795 793 792 790 789 788 787 785 783 782 781 779 777 775 774 772 770 769 767 766 764 763 762 761 759 758 757 756 754 753 752 751 749 748 747 746 745 743 741 740 738 737 736 735 734 734 736 736 733 731 731 730 730 731 732 732 733 734 735 736 737 738 739
803 804 804 804 805 805 805 806 806 806 806 807 806 806 805 804 803 802 801 799 798 797 795 794 792 791 790 789 788 786 785 783 782 780 779 777 775 773 771 769 767 765 764 763 762 761 759 758 756 755 753 752 751 749 748 746 745 743 742 741 739 738 737 735 734 733 731 731 733 733 730 728 727 727 726 727 728 729 729 731 731 733 734 734 735
802 803 804 804 805 805 806 806 806 806 807 807 807 806 805 804 803 802 801 800 798 797 796 794 793 792 791 790 788 787 786 785 784 782 780 778 776 774 772 770 768 766 764 763 762 761 759 758 756 755 753 752 750 748 747 746 744 742 741 739 738 737 736 735 733 731 729 729 729 730 728 726 725 724 724 724 724 724 725 726 727 729 730 731 732
802 803 803 804 805 805 806 806 806 806 807 807 807 806 805 804 803 802 801 800 798 797 796 795 794 793 791 790 789 788 787 786 785 783 781 779 777 775 774 771 769 767 766 764 762 760 759 757 756 755 753 751 750 748 747 745 743 742 741 739 738 737 736 734 732 730 728 726 727 727 725 723 723 723 722 722 721 721 721 722 723 725 726 727 728
801 802 803 804 804 805 806 806 806 807 807 807 806 806 805 804 803 802 801 800 798 797 796 795 794 793 792 791 790 789 788 787 786 784 782 780 778 777 775 773 771 769 768 766 763 761 759 757 755 754 752 751 749 747 746 744 743 742 741 739 738 736 734 733 731 730 727 725 725 725 723 721 721 721 720 720 719 717 718 719 719 720 722 723 724
Wind_Speed
13 12 10 9 9 9 9 8 8 8 9 11 12 12 12 11 12 12 12 12 13 13 13 12 10 9 8 8 7 7 7 6 5 4 3 3 4 4 5 4 5 5 2 2 3 4 5 4 5 6 9 12 13 13 14 15 16 17 16 16 16 17 19 19 19 18 17 16 16 15 14 12 12 14 16 17 16 16 16 17 17 17 15 14 13
15 12 10 9 8 10 10 9 9 8 9 10 11 12 12 11 12 13 13 13 14 13 13 12 11 10 9 8 8 7 7 7 5 4 3 3 4 4 5 5 5 4 2 2 3 3 3 3 4 7 9 11 12 13 14 15 16 18 17 16 16 16 18 19 19 19 18 17 16 15 14 13 13 14 16 16 17 17 16 17 17 17 15 14 13
15 13 10 8 8 10 10 9 10 10 9 10 11 10 10 11 11 12 13 13 13 13 12 11 11 10 10 9 8 7 8 8 7 5 4 3 3 3 4 6 5 2 1 1 2 2 2 3 4 7 8 9 11 13 13 13 14 17 18 18 17 16 17 19 19 19 19 17 16 15 14 14 14 15 17 16 16 17 17 17 17 17 15 15 13
14 12 10 9 9 9 10 10 10 10 10 10 10 9 8 9 10 11 12 13 12 12 12 11 10 10 10 11 10 8 8 8 8 7 5 4 3 3 4 5 4 2 1 2 2 3 4 2 3 5 7 8 9 11 11 11 13 16 18 18 18 17 17 18 18 20 19 18 17 16 15 14 14 16 17 17 16 16 17 17 17 16 16 15 14
13 12 11 11 10 10 10 10 10 10 10 10 10 9 6 6 8 9 11 12 11 12 12 12 11 10 10 10 10 9 9 9 9 9 7 6 4 3 4 4 4 3 3 3 4 5 5 2 0 1 4 5 7 9 10 12 15 17 19 19 18 18 18 17 18 19 20 19 19 18 16 15 15 16 17 17 17 17 17 17 17 16 16 15 14
12 11 12 13 12 12 12 11 10 9 9 10 11 9 6 6 8 9 10 11 11 11 12 13 11 10 10 9 9 10 10 10 10 10 9 7 6 5 4 4 5 5 5 5 5 5 5 4 3 2 1 3 5 8 10 12 14 16 18 19 19 19 18 18 18 19 20 20 20 19 17 15 15 16 17 17 17 16 17 17 17 17 17 16 15
11 11 12 14 14 13 13 12 10 9 9 10 10 8 7 8 9 9 10 10 10 11 11 12 11 10 10 10 10 10 10 11 11 11 10 8 7 7 6 5 6 6 7 6 5 5 5 4 4 3 1 1 2 5 7 8 11 14 16 18 20 20 20 19 19 19 20 21 21 20 19 17 16 16 17 17 17 17 17 17 17 17 17 17 16
11 10 11 14 15 14 14 13 12 11 10 10 9 9 9 9 10 10 11 10 10 10 10 11 12 11 11 11 11 11 11 12 12 12 11 10 9 8 7 7 6 6 7 7 6 5 5 4 3 2 1 1 1 2 4 5 8 11 13 16 19 20 20 19 20 20 20 21 21 21 21 19 17 17 17 18 17 17 17 17 17 18 17 18 18
10 9 10 13 14 14 13 14 13 12 11 11 11 10 10 10 11 11 11 10 9 9 9 10 11 11 11 11 11 12 12 12 12 12 12 11 10 9 8 8 7 7 6 6 6 5 5 4 3 2 1 1 1 2 3 4 6 9 11 14 17 18 19 20 20 21 20 21 22 22 22 21 19 18 18 18 18 17 17 18 17 18 17 18 19
10 9 9 11 13 13 13 13 14 13 11 12 12 11 11 12 13 13 12 10 9 8 8 9 9 10 10 11 11 12 12 11 11 11 10 10 10 10 9 8 8 7 7 6 5 5 4 3 3 2 1 1 1 1 2 3 4 7 9 12 15 17 20 22 21 21 21 21 22 23 24 22 21 20 19 19 18 16 16 17 18 18 18 17 19
9 8 8 10 12 12 13 13 13 13 11 11 13 12 11 12 13 14 13 12 10 7 7 8 9 9 10 10 11 11 11 10 10 10 9 9 9 10 9 9 8 7 7 6 6 6 5 4 4 4 3 2 1 0 1 3 4 5 8 10 12 15 19 22 22 21 21 21 22 22 24 24 23 21 20 20 19 18 17 17 17 18 18 18 19
9 8 9 10 12 13 14 14 13 12 12 12 12 12 11 12 13 14 14 14 13 8 6 7 8 8 9 9 9 9 9 9 10 9 10 10 10 10 10 10 9 8 7 7 6 7 7 5 5 5 4 3 2 1 1 2 3 4 6 7 8 12 16 20 21 21 21 22 22 22 23 26 25 23 22 22 20 20 19 18 18 17 18 19 19
8 8 9 10 12 14 15 15 14 13 12 12 12 11 11 11 12 13 15 17 17 12 6 4 5 6 6 7 8 8 7 7 8 9 9 9 10 10 11 11 11 11 9 7 7 7 7 6 5 5 4 3 3 2 2 2 2 3 5 5 7 10 12 17 21 21 21 22 23 23 23 25 27 25 24 23 22 21 20 20 19 18 18 19 20
8 7 8 10 11 13 15 15 15 14 12 12 13 13 12 11 11 12 15 17 20 18 11 4 4 3 3 3 5 6 7 7 8 7 7 7 8 9 10 11 12 12 12 9 7 7 7 7 6 6 4 3 2 2 2 3 3 3 4 5 6 8 10 14 20 23 23 23 23 24 24 25 27 27 26 25 23 23 22 21 20 19 18 19 21
7 7 8 9 10 11 14 15 15 15 14 13 14 15 14 13 13 12 13 15 17 20 18 12 7 3 1 2 2 2 4 6 8 7 7 6 7 8 9 10 10 11 13 12 10 9 8 8 8 7 5 3 3 2 2 3 4 4 5 5 5 7 9 12 17 22 24 25 24 25 25 25 26 27 27 27 26 24 23 22 21 20 19 19 21
6 7 7 9 9 10 11 13 14 15 15 15 15 15 15 15 14 13 13 13 14 17 19 18 15 8 2 0 0 1 1 3 5 6 7 6 6 8 8 8 9 10 11 12 12 11 10 9 8 8 6 5 4 3 3 3 4 5 4 4 5 6 8 10 13 19 24 25 26 27 27 26 26 27 28 27 26 26 25 23 22 21 21 20 21
5 6 7 8 8 9 10 11 12 13 13 14 15 15 15 15 16 15 15 13 12 14 16 18 19 15 8 3 1 1 0 3 4 4 6 8 7 8 8 9 9 9 9 10 11 11 11 9 8 8 7 6 6 5 5 5 5 5 4 4 5 6 8 9 11 15 20 23 25 27 28 27 26 27 29 28 27 27 27 25 24 22 22 21 21
5 5 6 7 8 8 8 9 10 11 11 12 12 13 13 14 15 15 16 14 12 13 14 14 16 17 15 10 6 3 0 2 2 2 4 6 7 8 9 11 10 8 8 7 9 10 10 10 9 8 8 8 7 6 6 7 7 6 5 5 4 5 7 9 10 12 15 20 24 27 28 28 27 27 28 30 28 28 28 26 26 24 23 23 21
5 4 5 6 7 7 8 8 9 9 10 10 11 11 11 12 12 13 14 13 13 15 15 13 13 13 13 11 10 9 7 5 2 1 2 3 7 9 10 12 10 8 8 8 8 8 8 9 9 8 8 8 7 6 7 7 7 7 7 7 5 4 6 7 8 10 12 15 20 25 27 28 28 27 27 29 29 28 28 27 27 26 25 25 23
5 5 5 5 6 6 7 8 8 8 8 8 9 10 10 10 10 11 11 12 12 13 13 13 12 12 11 10 9 10 10 10 7 3 1 1 6 8 11 16 11 6 8 9 9 9 8 7 7 8 7 7 7 6 7 7 6 7 7 8 7 5 5 5 6 8 10 12 16 21 25 28 29 28 27 27 28 28 28 28 28 28 27 26 25
5 6 5 5 5 5 6 7 7 8 7 7 8 8 8 9 9 10 11 11 11 11 11 11 11 11 11 10 8 7 8 10 9 7 3 1 2 3 8 14 12 11 11 10 10 10 8 6 5 6 6 6 6 6 7 6 6 7 7 8 8 6 5 5 5 6 8 11 14 17 21 26 28 27 27 27 27 28 30 30 29 28 27 26 26
5 6 6 5 5 6 6 7 7 7 7 7 7 7 7 7 8 8 9 10 9 9 9 9 9 9 9 9 8 8 6 6 8 7 4 2 1 2 5 7 7 12 15 14 12 11 9 7 6 6 4 4 5 6 7 7 6 7 7 8 9 7 6 6 5 6 8 8 10 15 17 21 24 26 27 27 27 28 30 31 32 30 28 26 26
6 6 6 6 6 6 7 7 7 7 7 7 7 7 6 6 6 6 7 7 7 7 7 7 7 7 7 7 7 6 5 4 6 6 4 2 1 2 5 8 7 10 15 16 12 9 9 9 8 7 5 3 4 6 7 6 5 6 7 8 8 7 6 6 6 6 7 7 7 10 12 15 21 24 27 28 28 29 30 31 32 31 30 28 27
6 6 6 7 7 7 7 8 8 8 8 8 7 7 7 6 6 5 5 5 5 5 5 5 6 6 6 6 5 4 4 5 6 6 5 4 3 2 5 8 7 9 17 16 10 8 8 8 8 7 7 4 3 5 5 5 4 5 6 7 7 6 6 6 6 5 6 6 6 7 7 10 15 20 24 28 30 30 30 30 31 31 31 30 28
6 6 5 6 7 7 8 8 8 9 8 9 9 9 9 9 8 7 7 6 5 6 6 5 5 5 5 5 5 5 5 6 7 8 8 7 5 3 5 7 4 8 15 14 10 9 8 8 6 7 7 6 4 4 4 4 3 4 6 6 5 5 5 6 6 6 6 6 6 6 6 7 9 13 18 23 28 30 30 29 30 32 31 32 32
6 5 4 4 5 6 7 7 7 8 9 9 9 10 10 11 11 11 10 9 8 8 8 7 7 7 6 6 5 6 6 6 8 9 9 9 8 5 4 6 5 6 9 10 9 8 7 9 6 5 6 5 4 4 5 5 5 5 6 6 5 5 4 5 6 7 7 6 6 6 5 6 7 9 12 15 20 26 30 30 31 33 33 33 35
5 4 4 4 5 5 6 7 7 8 9 10 10 10 11 12 13 14 14 13 12 12 11 10 10 9 9 9 9 8 8 8 8 9 10 10 11 9 5 3 4 4 4 6 8 7 7 9 7 1 3 2 3 4 5 7 8 8 8 7 7 6 5 6 6 7 8 8 7 7 6 6 7 8 9 10 12 18 25 31 32 32 33 34 36
6 5 6 6 7 7 8 9 9 10 10 11 12 12 12 14 15 15 16 15 15 16 15 14 14 13 12 12 12 12 11 10 11 11 12 11 11 12 9 5 2 2 2 3 4 5 7 8 5 3 3 3 5 6 7 8 9 9 10 10 9 8 7 7 7 7 7 7 7 8 7 6 6 6 6 7 9 11 16 25 30 31 32 33 35
7 7 7 8 8 9 10 11 11 12 12 13 14 14 15 16 16 17 18 17 17 18 18 18 18 17 16 15 15 16 14 13 14 13 13 14 13 13 13 10 6 2 1 2 2 2 7 9 6 4 5 7 8 9 9 10 10 10 10 11 11 11 9 8 9 10 9 8 7 7 8 7 6 5 5 5 7 7 8 14 24 28 31 33 35
8 9 9 10 10 11 12 13 13 14 15 15 16 16 17 18 19 19 20 19 20 21 21 21 21 20 20 19 18 19 18 17 17 16 16 16 16 15 15 14 12 8 5 2 3 5 9 11 9 7 10 12 12 11 12 12 12 12 12 12 12 12 11 10 11 12 12 11 10 8 8 8 6 5 5 5 5 6 6 7 14 21 28 33 35
11 11 12 12 13 14 15 16 17 17 17 17 18 18 19 20 21 22 22 22 22 23 23 23 23 23 23 23 22 22 21 20 20 19 19 19 19 19 18 17 16 15 13 7 2 7 12 13 14 15 16 16 15 14 13 12 12 13 13 13 14 13 12 12 12 13 13 13 12 10 9 9 7 6 5 5 6 6 7 7 8 12 19 28 34
13 13 14 14 14 15 16 17 18 18 19 19 18 18 19 20 21 22 23 23 24 25 25 25 25 25 25 25 26 26 24 23 23 22 22 21 21 21 21 20 19 18 17 12 5 9 19 21 20 21 19 18 17 15 14 13 11 12 13 13 14 14 13 12 13 12 12 12 12 10 9 9 9 7 6 5 6 6 7 7 8 9 12 18 25
13 14 14 14 14 14 15 15 16 16 17 17 16 16 17 18 18 19 20 21 22 23 24 24 24 25 25 25 27 28 26 24 24 24 24 23 22 22 22 21 21 21 19 17 10 9 19 24 23 22 21 19 18 16 15 14 12 11 12 13 14 15 14 14 15 14 11 11 11 11 10 10 10 9 7 6 6 6 7 8 8 9 10 11 15
13 12 12 11 11 11 11 12 12 13 13 13 13 12 13 13 14 15 16 17 19 20 21 22 23 23 23 23 25 26 24 24 24 24 24 24 22 21 21 20 21 22 20 19 16 11 15 23 25 24 24 22 20 19 17 16 14 13 12 13 14 17 18 18 17 15 13 11 11 12 12 11 12 12 10 8 7 6 7 8 9 9 9 10 12
9 8 7 7 7 8 9 10 11 12 13 13 13 12 12 12 12 13 13 14 15 17 18 19 20 20 19 20 21 22 20 21 22 22 22 22 20 20 20 18 18 20 21 20 19 16 16 22 24 24 24 24 22 22 20 19 18 17 15 14 14 16 19 19 18 16 15 13 12 12 13 13 12 13 12 11 10 8 7 8 9 10 10 10 11
4 5 5 6 7 8 10 11 12 13 14 14 14 14 13 13 13 13 13 12 12 13 14 15 15 16 16 16 17 18 18 18 19 20 19 19 19 20 20 19 17 19 20 19 20 20 18 20 24 25 25 25 25 25 24 22 22 21 20 18 16 16 17 18 18 17 15 14 14 13 14 15 14 13 14 14 13 11 9 8 8 10 11 11 11
5 6 7 8 9 10 11 12 13 13 14 15 15 15 15 15 14 14 14 13 13 13 12 13 13 13 13 13 13 14 14 15 16 17 18 18 17 17 18 19 18 18 19 18 19 20 20 21 25 27 25 24 26 27 25 23 23 23 22 21 19 18 18 19 19 17 15 15 15 16 16 17 17 16 16 16 15 14 12 11 9 9 10 11 11
8 8 9 10 11 12 13 13 14 14 15 16 17 17 18 17 17 17 17 16 16 15 15 14 14 13 13 12 12 12 12 13 14 15 16 17 16 16 16 18 18 17 18 18 18 18 19 21 24 26 26 24 24 27 26 23 22 22 23 24 23 21 21 21 20 19 17 15 15 16 18 18 19 18 18 18 18 16 15 13 12 10 10 11 11
10 10 11 12 12 13 14 14 15 16 17 18 19 18 18 18 18 17 18 18 17 17 17 16 16 15 14 13 13 13 13 14 14 13 14 15 14 14 15 16 17 16 16 17 17 16 17 19 20 22 24 24 22 24 25 23 21 22 22 22 23 24 23 22 22 20 17 16 14 15 17 19 20 20 19 19 19 19 18 17 15 14 12 12 11
11 12 12 13 14 15 16 17 18 18 19 20 20 19 18 18 17 17 18 18 18 18 18 18 17 17 16 15 15 15 15 15 15 14 15 15 15 14 15 15 15 14 14 15 16 16 15 15 17 19 21 22 21 21 23 22 20 21 21 19 20 24 24 23 22 20 18 18 16 15 16 18 20 21 21 20 20 20 20 19 19 18 16 15 14
13 13 14 14 15 17 18 19 19 20 21 21 20 19 18 18 17 17 17 18 18 19 19 19 18 18 17 16 16 15 14 15 15 15 15 15 15 16 16 15 14 13 13 14 14 15 15 13 15 17 17 18 18 18 20 20 19 21 21 17 17 21 22 21 22 21 20 19 19 18 17 18 20 22 22 22 22 22 22 22 21 21 20 18 17
13 14 14 15 17 18 19 20 21 22 22 20 18 17 17 17 16 17 17 17 18 19 20 20 20 19 18 17 16 15 14 15 15 15 14 14 14 15 15 15 15 13 12 13 13 13 14 12 13 14 14 14 16 16 17 20 20 22 21 18 18 21 20 18 20 23 21 19 19 20 18 17 20 23 24 24 23 23 23 24 23 22 21 20 19
14 14 15 17 18 19 20 21 22 22 21 19 18 17 17 16 16 16 17 18 18 19 20 21 21 19 18 17 17 16 16 16 16 16 15 15 15 15 15 14 14 13 12 12 13 13 14 14 15 15 13 14 17 17 17 19 20 21 21 20 19 20 17 12 12 17 19 16 16 18 18 17 19 23 26 26 26 24 24 24 24 23 22 21 20
14 15 17 19 20 20 20 21 22 21 21 19 19 18 18 18 17 17 18 18 19 19 20 19 19 18 17 17 17 17 16 16 16 17 17 17 17 17 17 16 15 14 13 12 12 13 14 14 15 16 16 15 17 18 18 18 20 20 20 19 19 19 19 15 12 15 19 16 13 15 18 19 18 21 24 26 27 26 24 24 24 24 23 22 21
16 18 19 20 20 20 20 21 21 21 20 20 19 20 20 20 19 19 20 20 19 19 19 18 18 18 18 18 19 19 18 17 17 18 18 18 19 18 18 18 17 16 15 12 11 11 11 12 13 15 16 16 17 19 19 19 21 22 20 18 18 18 19 18 18 21 24 19 14 15 18 21 19 20 24 25 25 27 26 24 24 25 25 24 23
18 20 20 20 20 20 20 21 20 20 20 20 20 20 20 20 20 20 20 20 19 18 18 18 17 17 18 20 21 20 20 20 20 20 19 18 18 18 18 17 17 17 15 14 14 13 11 10 11 14 16 16 16 18 19 19 19 21 22 22 21 20 21 22 23 25 25 22 18 14 15 20 21 20 24 25 25 27 27 26 25 24 24 25 25
19 20 20 20 20 20 20 20 20 19 18 18 18 19 20 20 21 21 21 20 20 19 19 18 17 16 18 20 21 21 21 21 21 21 21 21 20 19 18 17 17 16 16 16 16 15 14 12 10 12 14 14 15 16 17 18 18 18 19 20 20 19 21 22 22 23 24 25 22 15 12 18 22 20 21 24 25 26 27 26 26 25 24 25 25
18 19 19 19 19 19 18 18 18 18 17 16 16 17 18 19 20 22 23 22 21 20 19 18 17 17 18 20 21 21 21 21 21 22 23 24 24 23 22 21 20 18 17 16 15 15 14 13 13 12 13 12 12 12 13 14 15 15 15 16 16 15 15 16 16 19 22 23 23 19 16 19 22 20 19 21 23 25 26 26 26 25 24 25 25
17 17 18 17 17 17 16 15 15 15 15 15 15 16 17 18 19 21 22 23 22 21 19 18 17 17 19 19 20 20 21 22 22 23 23 24 25 25 25 24 24 23 21 18 16 16 15 15 14 14 14 14 14 14 14 13 13 13 14 14 14 14 12 10 9 13 17 19 21 21 19 19 21 20 19 21 23 24 24 25 26 27 26 26 25
16 16 15 15 14 13 13 12 12 13 14 14 14 15 16 16 17 19 20 21 21 20 18 17 16 16 17 18 18 19 20 21 22 22 23 24 25 25 25 25 25 25 24 22 20 19 18 16 15 14 14 15 14 15 15 15 15 15 14 14 15 15 13 10 10 13 17 18 17 16 17 19 21 22 19 18 20 23 25 26 26 27 28 27 26
15 14 13 12 11 10 9 10 10 11 12 13 13 14 14 14 16 17 18 19 19 18 16 15 14 14 15 16 18 19 19 20 21 22 22 22 22 23 23 24 24 24 23 22 21 21 21 19 18 16 16 16 16 17 17 16 16 16 15 14 15 16 15 15 14 14 12 11 11 10 13 16 19 22 20 12 9 15 22 26 28 28 29 28 27
Wind_Direction
22 21 24 32 45 51 45 45 52 48 43 45 44 42 40 42 48 49 47 46 47 48 51 55 61 59 56 55 51 50 53 60 68 83 98 80 71 62 47 55 83 87 101 129 152 180 190 177 168 196 201 191 192 193 188 187 186 184 182 185 187 190 191 186 184 185 185 183 181 181 177 176 180 174 172 173 173 171 169 167 163 158 152 149 144
17 17 19 29 44 56 56 54 60 53 42 42 43 42 43 50 56 54 52 50 50 50 51 59 66 65 58 54 53 52 56 63 69 70 84 77 63 61 45 44 60 69 69 109 139 167 178 159 176 202 199 194 199 201 197 190 189 188 185 187 190 192 193 191 190 188 187 185 182 184 180 181 183 177 176 175 173 171 170 169 167 163 157 153 148
14 20 24 33 45 56 61 57 55 50 41 38 40 43 49 58 62 57 53 52 52 52 53 58 66 67 62 59 57 56 58 63 69 65 66 63 49 51 46 47 62 69 61 88 127 137 119 143 196 206 196 196 202 207 205 193 193 193 189 190 192 193 195 196 194 191 192 187 184 187 184 185 185 180 180 176 175 174 172 171 170 168 165 158 153
14 24 32 39 46 53 58 54 47 41 35 31 34 41 52 64 65 61 55 54 57 57 57 60 68 74 69 63 60 58 60 65 70 68 64 57 41 46 45 47 58 57 38 55 71 79 93 143 213 204 194 202 202 205 210 203 202 200 196 194 192 194 197 198 197 195 196 192 187 189 189 189 186 184 184 178 177 178 174 173 173 173 172 164 159
18 34 39 41 42 45 50 50 43 34 27 24 26 33 48 64 62 60 55 53 61 63 63 67 76 83 78 70 66 62 61 66 70 69 67 68 63 54 48 50 52 43 34 49 63 72 83 93 225 164 192 209 199 199 211 208 205 204 201 198 194 196 200 200 199 198 199 196 192 191 190 192 189 187 187 181 179 181 178 176 177 176 176 172 166
29 44 42 39 37 38 42 44 41 30 22 20 23 29 43 59 56 55 52 51 61 65 66 71 80 86 81 75 75 69 66 68 67 65 68 71 71 62 59 57 52 47 43 46 55 72 85 77 68 86 149 195 189 197 211 209 205 205 203 201 198 198 201 202 202 201 201 200 197 193 189 191 195 192 191 187 181 183 182 179 182 181 180 179 172
40 49 40 35 33 36 41 41 37 30 24 22 25 33 46 53 52 53 53 53 60 63 65 73 82 87 84 81 82 79 75 74 70 69 69 71 71 67 66 60 50 49 49 52 52 60 76 79 80 85 91 128 176 194 206 212 209 206 203 204 204 200 200 203 204 203 202 203 202 198 191 190 197 197 194 192 186 185 186 184 186 185 184 184 178
46 50 34 30 36 43 45 42 37 32 30 26 29 43 50 50 48 48 50 54 57 59 64 74 84 90 92 89 88 87 82 80 76 73 71 70 72 72 71 66 55 53 52 55 52 47 58 72 82 77 68 78 81 168 186 208 213 205 203 208 209 205 202 203 207 207 204 204 204 202 196 191 195 199 195 195 194 191 190 188 190 190 189 188 183
49 47 32 29 39 45 43 38 32 29 33 33 37 50 55 52 49 44 42 45 51 57 66 75 81 90 98 96 93 92 85 81 78 73 70 68 70 71 71 69 61 58 58 58 57 50 54 67 85 89 60 57 79 127 173 206 215 206 208 215 214 210 205 204 208 211 208 205 204 205 202 195 195 198 196 197 199 197 195 192 192 195 195 192 188
49 46 38 34 38 37 33 29 23 22 29 37 44 52 57 56 53 47 38 34 38 52 68 76 79 87 98 101 98 94 86 81 79 75 72 68 68 67 65 67 63 60 61 62 64 60 58 66 78 97 94 58 62 95 176 211 221 214 219 222 217 213 210 207 208 211 211 208 207 208 207 202 198 198 197 199 202 200 199 197 195 198 199 198 195
50 46 43 39 36 32 27 23 20 20 24 36 46 53 58 57 53 50 46 42 38 48 75 81 84 87 92 99 99 96 89 82 77 73 72 69 65 62 59 59 58 56 58 59 60 55 51 59 66 73 84 84 49 35 222 233 236 227 226 223 219 219 214 208 208 211 214 211 209 209 208 207 204 201 200 199 202 202 200 202 201 200 200 201 202
51 43 39 36 33 30 26 26 29 30 33 41 48 53 58 55 50 45 44 49 48 56 86 87 87 91 89 91 93 92 90 83 77 72 68 65 60 57 55 52 49 45 47 52 56 53 47 47 54 61 67 70 55 23 323 278 261 248 239 226 223 228 220 211 208 210 217 216 213 213 210 209 208 205 204 202 203 203 202 204 206 207 204 201 203
49 38 31 30 31 34 32 34 38 41 48 55 56 61 61 56 53 46 43 46 46 51 75 94 80 82 84 86 83 82 86 80 73 70 64 61 57 52 50 47 44 41 37 38 42 44 45 44 44 44 46 48 39 22 356 322 292 269 258 242 230 233 229 218 209 209 217 218 215 216 215 214 212 208 207 205 203 204 204 205 206 210 211 204 202
43 38 28 24 31 38 38 40 42 44 57 65 63 65 64 60 58 55 53 49 45 44 51 75 73 64 73 71 64 73 83 74 61 57 50 46 46 43 40 37 35 35 33 30 28 28 34 38 37 35 36 37 30 12 346 321 304 285 270 259 241 233 232 225 215 211 215 218 216 218 218 217 215 210 208 207 205 205 205 207 208 208 212 210 206
36 36 29 25 32 39 41 44 46 49 59 63 60 60 57 55 53 55 57 54 50 45 45 52 53 51 71 45 23 54 73 51 37 36 34 27 29 29 25 22 23 26 28 26 21 17 20 26 29 30 35 36 26 12 342 316 305 296 280 268 253 238 235 231 222 215 216 218 217 219 220 219 219 216 211 208 208 207 206 209 211 211 212 214 210
26 27 27 27 31 36 40 45 50 53 59 61 58 55 51 46 43 45 48 50 53 50 48 49 47 45 58 108 45 70 48 0 356 23 43 39 29 25 16 8 8 13 17 20 18 14 13 18 23 21 18 14 8 4 351 340 329 319 302 277 260 249 242 237 229 220 218 220 218 219 222 222 223 221 216 213 210 208 208 209 211 213 215 216 213
18 14 17 21 27 32 35 42 49 54 57 59 58 54 50 46 41 41 43 45 52 55 52 50 50 50 57 80 71 41 307 308 329 14 45 54 50 39 25 7 1 5 7 10 11 10 9 11 17 17 12 9 7 4 1 3 359 352 340 304 271 259 252 244 238 229 224 223 221 221 223 223 223 221 219 218 215 211 210 210 211 214 217 219 218
13 6 4 9 17 23 28 34 41 46 49 51 52 50 47 46 44 42 43 44 49 54 51 49 52 52 56 67 71 73 5 321 341 346 17 51 55 47 36 20 12 14 13 7 0 357 358 1 6 12 13 13 14 15 13 13 8 3 355 339 311 281 270 256 247 240 233 228 224 222 223 222 222 222 221 220 217 214 211 212 212 214 216 218 222
7 2 354 355 2 11 16 20 26 33 38 40 40 40 39 41 40 40 43 44 47 50 46 44 50 49 51 60 64 66 58 44 64 348 332 9 14 19 22 17 20 30 26 18 3 350 342 344 348 355 6 11 14 18 20 19 14 11 5 354 345 309 287 274 262 252 242 235 230 227 224 223 223 223 223 221 219 217 214 213 213 215 218 218 222
356 356 347 340 346 356 2 5 9 15 22 26 27 29 32 35 35 34 37 39 43 45 43 41 44 42 41 47 54 57 57 56 58 55 88 286 341 360 357 355 358 5 8 6 360 351 336 326 327 336 350 4 9 12 16 21 20 18 14 5 3 348 318 299 281 265 250 240 235 232 229 225 223 222 222 221 221 220 218 216 215 215 219 220 221
348 352 346 335 331 338 346 350 352 359 6 8 11 17 23 28 30 31 31 31 33 34 38 40 40 38 33 33 40 45 47 47 43 45 65 18 336 336 340 348 345 331 334 341 343 343 333 313 298 312 332 350 1 7 10 17 24 25 18 11 14 10 343 320 298 282 272 254 237 233 231 228 224 221 221 222 223 223 221 219 218 215 217 221 221
341 344 345 340 330 325 331 334 332 338 349 353 356 1 9 17 20 24 28 29 29 29 33 35 36 38 32 27 30 32 34 30 23 23 35 40 1 304 319 341 334 323 328 331 329 330 325 305 277 279 301 335 350 1 5 8 19 29 26 17 15 15 359 337 317 300 300 288 251 237 234 233 230 224 223 224 224 225 222 220 219 215 214 219 220
342 339 339 337 333 325 324 323 319 321 329 336 338 340 347 358 4 10 17 23 26 26 28 29 30 31 28 26 26 27 29 15 3 2 2 3 343 315 319 328 316 310 326 333 329 324 316 299 275 259 259 295 334 347 354 357 8 20 24 23 17 13 11 357 336 318 314 317 285 254 245 240 236 230 227 227 227 226 222 220 218 215 214 218 220
348 344 341 335 330 326 322 320 318 317 317 320 321 321 324 328 336 342 347 359 8 9 10 12 14 15 13 15 9 359 355 347 344 341 333 325 323 305 314 330 324 312 328 338 339 334 322 302 279 245 236 250 296 328 338 344 357 4 4 12 18 15 14 6 352 339 324 319 309 288 275 253 238 232 230 229 228 226 224 222 219 215 216 218 221
357 353 348 336 329 327 324 321 317 315 312 310 310 311 312 313 315 315 317 325 329 332 338 337 337 344 348 350 346 332 322 323 322 319 318 312 311 309 316 328 321 313 330 341 343 344 341 323 292 231 224 237 259 301 318 327 335 340 341 346 1 11 12 6 354 341 329 318 309 300 291 268 245 239 238 234 231 228 226 225 220 216 217 219 219
4 2 355 334 324 322 319 317 314 310 307 306 306 304 304 305 304 303 304 304 302 304 309 313 312 311 311 313 314 309 305 307 304 303 305 302 299 296 308 324 313 307 326 336 339 344 353 350 332 226 221 239 258 289 302 309 309 311 316 316 326 341 349 355 351 339 331 322 310 301 292 278 260 251 248 243 237 233 228 224 220 218 219 219 219
344 346 342 328 319 313 307 307 307 303 300 299 300 300 298 297 298 298 298 298 293 291 293 296 298 299 298 296 293 291 291 292 290 290 293 294 296 293 288 311 319 311 321 331 336 335 340 356 0 284 231 246 286 305 306 308 305 299 296 291 292 303 314 325 332 331 327 323 312 302 294 285 270 260 256 250 247 242 231 222 219 218 220 220 221
323 320 321 319 317 316 311 309 307 303 300 297 295 295 293 292 292 292 294 295 292 290 291 289 289 291 291 289 288 288 290 287 283 284 287 287 290 292 284 261 261 314 317 315 335 332 326 340 349 322 292 290 302 306 306 309 307 299 290 281 276 275 285 304 311 312 310 311 311 302 292 286 278 270 264 253 253 257 242 227 222 221 221 222 222
315 312 311 311 311 312 312 313 312 308 305 302 298 296 293 290 289 289 290 292 289 287 288 286 286 287 286 285 284 285 287 286 284 284 285 286 285 285 283 270 252 242 303 304 291 286 305 312 310 294 295 302 303 298 293 296 299 297 291 282 273 266 269 283 294 299 295 290 293 295 290 286 281 271 262 258 258 266 263 239 228 224 222 222 223
317 316 314 312 313 311 311 312 312 309 307 305 301 298 294 291 290 290 291 291 288 286 286 284 284 284 282 283 282 283 285 283 283 285 284 286 285 283 283 277 261 241 228 258 282 267 281 294 293 289 298 305 308 302 292 288 288 288 284 281 274 266 266 273 284 291 292 285 279 279 282 281 278 265 247 250 256 258 266 251 234 229 226 224 225
319 320 318 317 317 315 313 313 312 311 309 307 303 299 295 292 291 291 292 291 288 288 289 287 286 285 282 282 281 281 284 283 283 285 284 284 285 284 282 278 269 257 243 230 254 270 268 278 289 292 296 300 303 303 298 294 295 291 282 276 269 263 261 271 283 289 289 284 276 271 273 273 271 262 243 238 239 241 244 241 236 235 232 230 229
318 318 317 317 317 317 317 316 315 315 313 311 310 305 299 296 294 294 294 292 288 289 291 290 289 287 284 284 284 283 283 283 283 285 285 285 285 284 283 278 273 266 251 233 220 267 269 274 284 290 295 298 297 294 292 293 298 298 291 277 264 259 262 272 283 288 289 282 272 266 268 266 261 255 244 238 238 240 246 242 232 230 235 236 234
319 319 320 321 322 322 322 321 319 319 317 317 316 312 308 305 302 300 299 296 293 293 293 293 292 290 286 286 288 288 286 284 284 285 287 288 288 286 285 280 275 271 258 240 228 257 272 276 280 286 291 293 292 291 289 288 290 294 293 281 265 258 265 278 282 282 287 283 270 265 268 264 255 249 244 239 239 242 247 250 243 235 231 234 236
322 324 327 329 332 333 335 337 338 338 339 339 339 336 331 327 322 318 314 308 304 303 301 301 302 300 295 293 294 296 295 292 290 289 289 292 296 294 292 288 282 278 269 254 245 252 271 276 278 283 287 286 285 287 288 287 288 289 286 280 270 264 267 275 277 275 277 281 273 266 267 264 251 244 246 247 244 244 245 248 250 247 239 233 232
334 343 349 353 0 4 8 11 11 11 11 12 12 11 8 1 354 349 342 333 325 320 316 315 316 314 308 304 306 308 307 302 300 298 297 299 304 302 298 298 292 286 281 268 257 254 265 277 280 282 285 285 284 287 288 287 286 286 285 283 277 269 267 270 274 274 273 272 270 264 262 263 254 241 240 246 247 246 247 248 249 249 246 241 237
18 35 36 33 32 31 31 29 26 25 24 25 25 24 22 17 12 10 6 3 360 353 345 340 338 334 328 322 322 323 319 314 312 313 312 311 311 307 303 303 300 296 291 280 268 261 261 273 281 282 283 285 286 287 287 286 286 285 284 283 279 271 266 265 268 274 272 264 261 259 256 256 256 248 242 243 245 245 244 247 253 254 250 246 240
79 70 59 51 45 43 43 40 36 34 32 31 30 29 27 25 23 23 22 21 21 19 14 8 4 359 355 350 346 344 338 331 328 328 326 323 320 316 313 312 310 305 300 291 280 270 262 265 275 282 285 285 286 287 286 286 288 288 287 284 280 272 268 266 265 269 271 264 258 258 255 251 251 249 246 244 243 243 242 241 248 255 254 251 246
89 77 67 63 58 56 56 52 49 47 44 41 37 34 31 29 29 30 31 33 33 32 31 28 24 20 16 13 9 7 3 352 343 338 334 329 327 325 323 320 317 312 306 301 293 281 270 267 273 280 284 284 284 286 287 286 286 287 288 287 284 276 269 268 269 269 268 266 262 259 256 254 252 249 247 248 246 244 242 240 241 246 249 251 249
87 79 73 72 69 68 67 66 63 60 56 51 46 41 36 33 32 32 33 36 38 38 39 37 37 35 30 28 26 22 18 12 4 359 353 346 341 338 334 329 324 319 313 309 302 289 278 274 276 278 282 285 284 284 287 288 285 283 282 281 281 279 273 271 273 273 267 264 266 266 261 257 256 254 249 249 248 245 243 243 241 240 241 245 246
87 84 83 82 81 81 79 76 71 66 60 55 50 45 42 39 37 36 35 35 36 38 40 39 39 40 38 38 37 30 26 28 28 26 20 13 6 359 355 350 341 332 323 316 309 298 287 281 282 283 284 285 284 286 289 288 282 280 279 275 274 278 279 277 277 276 271 268 270 271 267 260 256 255 252 248 246 242 241 242 242 240 238 240 242
94 92 90 91 91 89 86 79 73 67 62 57 51 46 44 42 41 40 38 37 36 36 39 40 39 39 37 37 36 33 32 33 30 25 21 18 13 6 2 358 353 344 333 324 316 308 299 287 282 284 285 284 284 285 286 284 280 281 283 279 274 277 281 281 281 278 274 274 273 270 269 265 257 253 251 250 249 244 241 241 241 240 240 239 240
100 98 96 97 96 92 87 81 75 70 65 60 55 50 47 45 44 43 42 40 39 37 36 37 38 38 38 36 32 29 27 21 14 8 4 2 0 357 353 350 348 343 336 328 324 321 314 303 292 288 283 283 287 285 282 284 287 286 284 280 276 279 282 281 281 279 276 276 274 268 268 268 260 253 249 250 252 249 245 243 242 243 242 240 240
105 104 103 102 98 93 88 82 76 72 69 65 60 55 52 50 47 47 47 45 43 41 39 38 37 36 37 36 31 25 19 11 1 357 355 351 349 346 341 339 338 336 333 327 322 322 321 317 313 308 300 296 301 301 296 296 296 292 289 285 279 277 276 272 275 278 278 280 276 268 268 271 265 256 252 251 252 252 251 249 246 244 240 237 238
113 113 110 106 100 94 88 83 79 76 73 68 63 58 56 54 52 51 51 49 46 43 41 37 33 29 28 29 28 24 18 11 2 358 356 353 351 348 343 342 341 340 343 339 326 319 317 316 314 312 309 309 312 313 311 310 307 302 295 287 279 273 268 260 255 265 274 280 277 268 271 276 271 261 257 256 255 253 254 254 249 243 238 235 234
121 118 113 108 101 94 88 85 83 80 74 68 63 59 56 54 54 54 53 50 47 44 39 34 29 25 24 25 26 25 22 17 11 6 2 357 353 351 350 351 351 353 358 1 355 342 326 316 308 303 304 309 312 312 313 315 314 310 303 293 282 272 265 260 260 269 277 278 269 263 266 271 271 264 260 262 260 255 254 256 251 245 242 238 233
126 121 116 109 100 94 90 87 86 82 76 69 63 59 57 54 53 53 52 49 47 42 37 34 31 29 31 31 29 30 29 26 20 14 9 4 360 357 356 356 356 1 6 8 8 4 353 337 315 303 304 308 307 306 308 311 312 309 308 304 294 281 272 269 270 274 278 275 265 258 260 266 266 260 260 264 264 258 256 255 252 249 247 242 235
128 124 118 109 101 96 92 90 89 84 78 70 63 59 56 54 50 49 47 46 45 41 36 37 39 39 41 40 37 38 37 34 28 23 20 18 14 9 5 3 2 8 15 14 13 13 9 2 346 328 324 322 315 309 308 307 305 301 303 305 304 296 284 278 275 274 273 272 266 252 246 260 259 250 256 266 266 260 258 254 251 249 246 241 238
129 126 120 111 103 99 96 92 89 86 80 71 64 58 53 49 46 44 41 40 40 39 37 41 47 48 47 45 43 44 43 40 35 31 29 27 24 20 16 13 13 15 17 17 18 20 19 17 15 7 1 357 349 341 335 326 316 311 311 309 310 310 297 283 278 276 275 275 269 251 238 252 255 245 250 264 264 261 259 254 249 247 243 240 239
135 132 124 114 105 101 99 94 89 88 84 74 65 59 52 45 41 39 37 35 34 35 38 45 51 54 53 49 47 46 46 43 38 33 30 28 27 25 21 19 20 19 17 15 15 19 23 25 26 24 20 16 11 8 9 4 354 345 335 324 320 320 308 290 281 281 281 282 277 260 242 246 254 251 250 258 260 259 258 254 249 246 244 242 240
137 137 131 121 110 104 101 96 91 90 88 79 68 60 52 45 38 35 33 32 31 30 34 42 51 55 56 53 51 49 47 43 37 31 27 24 23 23 21 20 20 19 17 15 12 12 15 19 22 24 22 17 12 11 14 13 12 8 354 338 331 323 305 292 293 293 289 290 289 273 249 245 252 252 250 255 258 256 254 253 251 247 244 242 240
132 138 138 130 119 111 107 104 98 93 88 79 68 60 52 44 38 33 28 27 29 28 28 36 45 50 54 55 54 50 43 36 30 25 21 20 21 22 21 19 18 14 14 16 14 11 11 13 16 16 17 17 15 13 13 13 14 14 5 349 337 322 303 295 299 299 294 298 309 292 258 251 251 247 243 246 255 256 252 250 249 248 244 240 238